| time (UTC) | temp F | wind direction | speed knots | gust knots | rain 1hr in | rain 24hr in | rain mn in | humidity % | barometer mb |
| 20260507134526 | 66 | 158 | 6.1 | 12.2 | 0.00 | 0.00 | 0.00 | 59 | 1013.2 |
| 20260507133023 | 67 | 182 | 7.0 | 12.2 | 0.00 | 0.00 | 0.00 | 62 | 1013.5 |
| 20260507131532 | 67 | 181 | 7.0 | 11.3 | 0.00 | 0.00 | 0.00 | 59 | 1013.5 |
| 20260507130020 | 67 | 163 | 6.1 | 12.2 | 0.00 | 0.00 | 0.00 | 60 | 1013.4 |
| 20260507124519 | 68 | 195 | 6.1 | 12.2 | 0.00 | 0.00 | 0.00 | 57 | 1013.3 |
| 20260507123023 | 67 | 161 | 5.2 | 11.3 | 0.00 | 0.00 | 0.00 | 59 | 1013.4 |
| 20260507121517 | 67 | 198 | 5.2 | 10.4 | 0.00 | 0.00 | 0.00 | 61 | 1013.4 |
| 20260507120014 | 67 | 167 | 5.2 | 9.6 | 0.00 | 0.00 | 0.00 | 58 | 1013.5 |
| 20260507114513 | 66 | 165 | 7.0 | 13.9 | 0.00 | 0.00 | 0.00 | 63 | 1013.5 |
| 20260507113012 | 66 | 159 | 6.1 | 10.4 | 0.00 | 0.00 | 0.00 | 62 | 1013.5 |
| 20260507111511 | 66 | 191 | 6.1 | 13.9 | 0.00 | 0.00 | 0.00 | 64 | 1013.3 |
| 20260507110013 | 66 | 191 | 7.0 | 13.9 | 0.00 | 0.00 | 0.00 | 64 | 1013.2 |
| 20260507104508 | 66 | 160 | 4.3 | 13.0 | 0.00 | 0.00 | 0.00 | 63 | 1013.1 |
| 20260507103008 | 66 | 169 | 6.1 | 9.6 | 0.00 | 0.00 | 0.00 | 64 | 1013.5 |
| 20260507101508 | 66 | 143 | 5.2 | 12.2 | 0.00 | 0.00 | 0.00 | 63 | 1013.6 |
| 20260507094603 | 65 | 222 | 5.2 | 13.0 | 0.00 | 0.00 | 0.00 | 65 | 1013.8 |
| 20260507093056 | 65 | 140 | 4.3 | 9.6 | 0.00 | 0.00 | 0.00 | 67 | 1013.8 |
| 20260507091602 | 64 | 157 | 5.2 | 9.6 | 0.00 | 0.00 | 0.00 | 69 | 1013.8 |
| 20260507090109 | 64 | 186 | 3.5 | 8.7 | 0.00 | 0.00 | 0.00 | 71 | 1013.6 |
| 20260507084545 | 64 | 169 | 3.5 | 8.7 | 0.00 | 0.00 | 0.00 | 70 | 1013.5 |
| 20260507083042 | 64 | 150 | 2.6 | 5.2 | 0.00 | 0.00 | 0.00 | 67 | 1013.4 |
| 20260507081550 | 64 | 149 | 1.7 | 4.3 | 0.00 | 0.00 | 0.00 | 66 | 1013.4 |
| 20260507080032 | 63 | 141 | 1.7 | 4.3 | 0.00 | 0.00 | 0.00 | 68 | 1013.5 |
| 20260507074531 | 62 | 160 | 2.6 | 5.2 | 0.00 | 0.00 | 0.00 | 68 | 1013.5 |
| 20260507073024 | 61 | 173 | 1.7 | 4.3 | 0.00 | 0.00 | 0.00 | 70 | 1013.6 |
| 20260507071520 | 61 | 131 | 1.7 | 5.2 | 0.00 | 0.00 | 0.00 | 73 | 1013.5 |
| 20260507070015 | 61 | 204 | 2.6 | 5.2 | 0.00 | 0.00 | 0.00 | 74 | 1013.5 |
| 20260507064513 | 59 | 160 | 0.9 | 4.3 | 0.00 | 0.00 | 0.00 | 77 | 1013.4 |
| 20260507063006 | 58 | 301 | 0.0 | 0.0 | 0.00 | 0.00 | 0.00 | 81 | 1013.3 |
| 20260507061506 | 56 | 301 | 0.0 | 0.0 | 0.00 | 0.00 | 0.00 | 85 | 1013.3 |
| 20260507054557 | 53 | 302 | 0.0 | 1.7 | 0.00 | 0.00 | 0.00 | 89 | 1013.3 |
| 20260507053049 | 51 | 302 | 0.0 | 1.7 | 0.00 | 0.00 | 0.00 | 91 | 1013.1 |
| 20260507051545 | 50 | 302 | 0.0 | 2.6 | 0.00 | 0.00 | 0.00 | 91 | 1012.8 |
| 20260507050040 | 50 | 302 | 1.7 | 3.5 | 0.00 | 0.00 | 0.00 | 91 | 1012.7 |
| 20260507044559 | 50 | 290 | 0.9 | 3.5 | 0.00 | 0.01 | 0.00 | 92 | 1012.5 |
| 20260507043052 | 49 | 327 | 0.9 | 4.3 | 0.00 | 0.01 | 0.00 | 92 | 1012.4 |
| 20260507041550 | 49 | 300 | 0.0 | 0.0 | 0.00 | 0.01 | 0.00 | 91 | 1012.4 |
| 20260507040050 | 49 | 300 | 0.0 | 3.5 | 0.00 | 0.01 | 0.00 | 91 | 1012.5 |
| 20260507034548 | 49 | 310 | 0.0 | 0.0 | 0.00 | 0.01 | 0.00 | 90 | 1012.5 |
| 20260507033044 | 50 | 310 | 0.0 | 0.0 | 0.00 | 0.01 | 0.00 | 90 | 1012.5 |
| 20260507031543 | 50 | 310 | 0.0 | 3.5 | 0.00 | 0.01 | 0.00 | 91 | 1012.7 |
| 20260507030042 | 50 | 300 | 1.7 | 3.5 | 0.00 | 0.01 | 0.00 | 91 | 1012.7 |
| 20260507024539 | 50 | 355 | 0.0 | 1.7 | 0.00 | 0.01 | 0.00 | 91 | 1012.7 |
| 20260507023038 | 50 | 355 | 0.9 | 2.6 | 0.00 | 0.01 | 0.00 | 91 | 1012.7 |
| 20260507021539 | 50 | 10 | 0.9 | 2.6 | 0.00 | 0.01 | 0.00 | 91 | 1012.7 |
| 20260507020037 | 50 | 10 | 0.9 | 2.6 | 0.00 | 0.01 | 0.00 | 91 | 1012.7 |
| 20260507014550 | 50 | 10 | 0.0 | 1.7 | 0.00 | 0.21 | 0.00 | 91 | 1012.7 |
| 20260507013037 | 50 | 10 | 0.0 | 1.7 | 0.00 | 0.21 | 0.00 | 91 | 1012.7 |
| 20260507011535 | 50 | 10 | 0.9 | 2.6 | 0.00 | 0.21 | 0.00 | 91 | 1012.7 |
| 20260507010032 | 50 | 10 | 0.0 | 1.7 | 0.00 | 0.21 | 0.00 | 91 | 1012.9 |
| 20260507004531 | 50 | 10 | 0.0 | 1.7 | 0.00 | 0.50 | 0.00 | 90 | 1013.0 |
| 20260507003029 | 50 | 10 | 0.0 | 0.0 | 0.00 | 0.50 | 0.00 | 90 | 1013.0 |
| 20260507001528 | 50 | 10 | 1.7 | 3.5 | 0.00 | 0.50 | 0.00 | 90 | 1013.0 |
| 20260507000028 | 50 | 5 | 0.9 | 2.6 | 0.00 | 0.50 | 0.00 | 90 | 1013.1 |
| 20260506234524 | 51 | 5 | 0.9 | 3.5 | 0.00 | 0.50 | 0.00 | 89 | 1013.2 |
| 20260506233023 | 51 | 333 | 0.0 | 2.6 | 0.00 | 0.50 | 0.00 | 89 | 1013.2 |
| 20260506231521 | 51 | 31 | 0.9 | 1.7 | 0.00 | 0.50 | 0.00 | 88 | 1013.2 |
| 20260506230020 | 52 | 31 | 0.0 | 3.5 | 0.00 | 0.50 | 0.00 | 88 | 1013.3 |
| 20260506224519 | 52 | 31 | 0.0 | 1.7 | 0.00 | 0.50 | 0.00 | 88 | 1013.3 |
| 20260506223017 | 52 | 31 | 0.0 | 3.5 | 0.00 | 0.50 | 0.00 | 88 | 1013.3 |
| 20260506221515 | 52 | 11 | 0.9 | 2.6 | 0.00 | 0.50 | 0.00 | 87 | 1013.3 |
| 20260506220013 | 52 | 26 | 0.0 | 2.6 | 0.00 | 0.50 | 0.00 | 87 | 1013.2 |
| 20260506214511 | 53 | 63 | 1.7 | 5.2 | 0.00 | 0.50 | 0.50 | 86 | 1013.1 |
| 20260506213014 | 54 | 46 | 1.7 | 4.3 | 0.00 | 0.50 | 0.50 | 85 | 1013.0 |
| 20260506211506 | 55 | 217 | 0.0 | 0.0 | 0.00 | 0.50 | 0.50 | 83 | 1012.9 |
| 20260506210005 | 55 | 136 | 0.0 | 1.7 | 0.00 | 0.50 | 0.50 | 83 | 1012.9 |
| 20260506204502 | 56 | 63 | 0.0 | 2.6 | 0.00 | 0.66 | 0.50 | 82 | 1012.9 |
| 20260506203104 | 57 | 63 | 0.0 | 2.6 | 0.00 | 0.66 | 0.50 | 79 | 1012.7 |
| 20260506201625 | 58 | 343 | 1.7 | 4.3 | 0.00 | 0.66 | 0.50 | 76 | 1012.6 |
| 20260506200057 | 59 | 213 | 0.9 | 5.2 | 0.00 | 0.66 | 0.50 | 75 | 1012.3 |
| 20260506194555 | 59 | 278 | 1.7 | 7.0 | 0.00 | 0.67 | 0.50 | 74 | 1012.1 |
| 20260506193054 | 59 | 238 | 0.9 | 6.1 | 0.00 | 0.67 | 0.50 | 73 | 1011.9 |
| 20260506191549 | 60 | 207 | 3.5 | 7.8 | 0.00 | 0.67 | 0.50 | 72 | 1011.5 |
| 20260506190047 | 60 | 184 | 3.5 | 8.7 | 0.00 | 0.67 | 0.50 | 71 | 1011.3 |
| 20260506184550 | 60 | 264 | 1.7 | 7.8 | 0.00 | 0.67 | 0.50 | 70 | 1011.1 |
| 20260506183043 | 61 | 229 | 2.6 | 5.2 | 0.00 | 0.67 | 0.50 | 67 | 1010.8 |
| 20260506181543 | 62 | 229 | 3.5 | 10.4 | 0.00 | 0.67 | 0.50 | 63 | 1010.7 |
| 20260506180043 | 63 | 212 | 3.5 | 8.7 | 0.00 | 0.67 | 0.50 | 64 | 1010.5 |
| 20260506174542 | 63 | 281 | 5.2 | 11.3 | 0.00 | 0.67 | 0.50 | 65 | 1010.5 |
| 20260506173056 | 64 | 227 | 4.3 | 8.7 | 0.00 | 0.67 | 0.50 | 63 | 1010.3 |
| 20260506171551 | 65 | 230 | 3.5 | 8.7 | 0.00 | 0.67 | 0.50 | 61 | 1010.2 |
| 20260506170039 | 65 | 209 | 4.3 | 11.3 | 0.00 | 0.67 | 0.50 | 60 | 1010.2 |
| 20260506164540 | 65 | 206 | 6.1 | 11.3 | 0.00 | 0.67 | 0.50 | 57 | 1010.1 |
| 20260506163052 | 66 | 234 | 2.6 | 11.3 | 0.00 | 0.67 | 0.50 | 56 | 1010.1 |
| 20260506161542 | 66 | 194 | 4.3 | 11.3 | 0.00 | 0.67 | 0.50 | 56 | 1010.0 |
| 20260506160037 | 66 | 234 | 5.2 | 13.0 | 0.00 | 0.67 | 0.50 | 55 | 1010.2 |
| 20260506154538 | 66 | 193 | 5.2 | 11.3 | 0.00 | 0.67 | 0.50 | 54 | 1010.3 |
| 20260506153039 | 67 | 217 | 6.1 | 13.0 | 0.00 | 0.67 | 0.50 | 54 | 1010.3 |
| 20260506151534 | 66 | 230 | 3.5 | 13.0 | 0.00 | 0.67 | 0.50 | 55 | 1010.3 |
| 20260506150033 | 66 | 200 | 5.2 | 13.9 | 0.00 | 0.67 | 0.50 | 53 | 1010.3 |
| 20260506144532 | 66 | 229 | 5.2 | 13.0 | 0.00 | 0.67 | 0.50 | 55 | 1010.4 |
| 20260506143032 | 66 | 211 | 6.1 | 13.0 | 0.00 | 0.67 | 0.50 | 55 | 1010.4 |
| 20260506141532 | 67 | 244 | 7.8 | 15.6 | 0.00 | 0.67 | 0.50 | 51 | 1010.4 |
| 20260506140037 | 67 | 194 | 7.0 | 15.6 | 0.00 | 0.67 | 0.50 | 51 | 1010.4 |